Home > Weather > Bnei Brak > Past weeks

Flag for Israel Past Weather in Bnei Brak, Israel — Yesterday and Last 2 Weeks

Now
82 °F

Partly sunny.


Feels Like: 88 °F
Forecast: 78 / 88 °F
Wind: 7 mph from Southwest

Location: Dov Airport

Current Time: Jul 26, 2016 at 9:38:59 AM

Latest Report: Jul 26, 2016 at 8:50 AM


Visibility: N/A

Pressure: 29.74 "Hg

Humidity: 74%

Dew Point: 73 °F

Location of Bnei BrakLocation

Past Weather in Bnei Brak — Graph

°F

Bnei Brak Temperature Yesterday

Maximum temperature yesterday: 88 °F (at 11:50 AM)
Minimum temperature yesterday: 79 °F (at 5:50 AM)
Average temperature yesterday: 84 °F

High & Low Weather Summary for the Past Weeks

 TemperatureHumidityPressure
High88 °F (Jul 13, 1:50 PM)89% (Jul 13, 5:50 AM)29.89 "Hg (Jul 13, 5:50 AM)
Low75 °F (Jul 16, 6:00 AM)49% (Jul 19, 3:50 PM)29.65 "Hg (Jul 19, 5:50 AM)
Average83 °F68%29.75 "Hg
* Reported Jul 11 7:50 AM — Jul 26 7:50 AM, Bnei Brak, Weather by CustomWeather, © 2016

Note: Actual official high and low records may vary slightly from our data, if they occured in-between our weather recording intervals... More about our weather records

Advertising

Bnei Brak Weather History for the Previous 24 Hours

Scroll right to see more
 ConditionsComfort  
Time TempWeatherWind HumidityBarometerVisibility
7:50 AM
Tue, Jul 26
81 °FPartly sunny.7 mph79%29.74 "HgN/A
6:50 AM77 °FPassing clouds.6 mph83%29.74 "HgN/A
5:50 AM77 °FPassing clouds.7 mph89%29.71 "HgN/A
4:50 AM77 °FPassing clouds.5 mph89%29.71 "HgN/A
10:50 PM
Mon, Jul 25
81 °FPassing clouds.5 mph84%29.71 "HgN/A
9:50 PM82 °FPassing clouds.5 mph79%29.71 "HgN/A
8:50 PM82 °FPassing clouds.3 mph79%29.71 "HgN/A
7:50 PM82 °FPassing clouds.5 mph79%29.68 "HgN/A
6:50 PM84 °FPassing clouds.6 mph74%29.68 "HgN/A
5:50 PM86 °FScattered clouds.8 mph70%29.68 "HgN/A
4:50 PM86 °FScattered clouds.8 mph70%29.68 "HgN/A
3:50 PM88 °FScattered clouds.10 mph66%29.68 "HgN/A
2:50 PM88 °FScattered clouds.13 mph66%29.68 "HgN/A
1:50 PM88 °FPassing clouds.13 mph66%29.65 "HgN/A
12:50 PM88 °FPassing clouds.14 mph66%29.68 "HgN/A
11:50 AM88 °FSunny.13 mph62%29.68 "Hg10 mi
10:50 AM86 °FPassing clouds.14 mph66%29.68 "HgN/A
9:50 AM84 °FPassing clouds.13 mph70%29.65 "HgN/A
Weather by CustomWeather, © 2016

See weather overviewHow to use our weather pages